Regional Weather Roundup
Issued by NWS

Home | Current Version | Previous Version | Graphics & Text | Print | Product List | Glossary On
Versions: 1 2 3 4 5 6 7 8 9 10 11 12 13 14 15 16 17 18 19 20 21 22 23 24 25 26 27 28 29 30 31 32 33 34 35 36 37 38 39 40 41 42 43 44 45 46 47 48 49 50
711
ASUS43 KDMX 021508
RWRIA

WEATHER ROUNDUP FOR IOWA
NATIONAL WEATHER SERVICE DES MOINES IA
1000 AM CDT MON MAY 02 2016

NOTE: "FAIR" INDICATES FEW OR NO CLOUDS BELOW 12,000 FEET WITH NO
SIGNIFICANT WEATHER AND/OR OBSTRUCTIONS TO VISIBILITY.

* - THESE STATIONS ARE NOT NWS STATIONS...THUS NOT UNDER NWS
QUALITY CONTROL.  THEY ALSO DO NOT REPORT WEATHER SUCH
AS PRECIPITATION OR FOG.

IAZ001>003-012>014-020>022-031>034-043>046-021600-
   NORTHWEST IOWA

CITY           SKY/WX    TMP DP  RH WIND       PRES   REMARKS
CARROLL *      CLOUDY    52  43  71 N8        30.13S
CHEROKEE *     SUNNY     52  45  76 CALM      30.14S
DENISON *      SUNNY     55  43  62 NE6       30.11F
LE MARS *      SUNNY     54  43  66 CALM      30.15S
ORANGE CITY *  SUNNY     54  41  62 NW3       30.13S
SHELDON *      SUNNY     52  41  66 W6        30.12S
SIOUX CITY     SUNNY     54  43  66 NW5       30.15S
SPENCER        SUNNY     57  38  48 CALM      30.13S
STORM LAKE *   SUNNY     55  37  50 VRB5      30.13F
$$

IAZ055>058-069>071-079>083-090>094-021600-
   SOUTHWEST IOWA

CITY           SKY/WX    TMP DP  RH WIND       PRES   REMARKS
ATLANTIC *     SUNNY     54  46  76 N6        30.13F
AUDUBON *      MOSUNNY   52  45  76 N5        30.14S
CLARINDA *       N/A    N/A N/A N/A MISG        N/A
COUNCIL BLFS * SUNNY     54  45  71 NE6       30.14S
CRESTON *      CLOUDY    52  45  76 N9        30.13F
HARLAN  *      SUNNY     52  45  76 N6        30.17S
LAMONI         CLOUDY    53  46  77 NE9       30.11S
SHENANDOAH *   SUNNY     55  48  76 N9        30.14F
$$

IAZ047>049-059>061-072>074-084-021600-
   CENTRAL IOWA

CITY           SKY/WX    TMP DP  RH WIND       PRES   REMARKS
AMES           CLOUDY    51  46  83 NW3       30.12F
ANKENY *       CLOUDY    54  45  71 VRB3      30.12F
BOONE *        CLOUDY    50  45  81 W3        30.12S
CHARITON *     MOSUNNY   52  45  76 N7        30.11F
DES MOINES     PTSUNNY   56  43  61 VRB3      30.13S
GRINNELL*      PTSUNNY   54  46  76 N10       30.12S
KNOXVILLE *    SUNNY     52  43  71 N7        30.10F
MARSHALLTOWN     N/A     51  46  83 N5        30.11F
NEWTON *       MOSUNNY   54  46  76 N8        30.11F
PELLA *        MOSUNNY   54  45  71 N5        30.13S
$$

IAZ004>006-015-016-023>025-035-036-021600-
   NORTH CENTRAL IOWA

CITY           SKY/WX    TMP DP  RH WIND       PRES   REMARKS
ALGONA *       CLOUDY    54  43  66 N5        30.12F
CLARION *      CLOUDY    48  45  87 CALM      30.12S
ESTHERVILLE    SUNNY     55  39  54 NW6       30.12S
FORT DODGE *   PTSUNNY   50  43  76 S3        30.13S
MASON CITY     CLOUDY    51  46  83 CALM      30.13S
FOREST CITY *  SUNNY     50  43  76 CALM      30.12S
WEBSTER CITY * CLOUDY    50  45  81 CALM      30.11S
IOWA FALLS *   CLOUDY    52  46  82 NE5       30.13S
$$

IAZ007>011-017>019-026>030-037>042-050>054-066-021600-
   NORTHEAST IOWA

CITY           SKY/WX    TMP DP  RH WIND       PRES   REMARKS
CEDAR RAPIDS   PTSUNNY   52  47  83 NE7       30.10S
CHARLES CITY * SUNNY     54  46  76 E6        30.13S
CLINTON *      CLOUDY    53  47  79 NE9       30.09F
DECORAH *      SUNNY     52  45  76 SE5       30.12S
DUBUQUE        SUNNY     52  43  71 NE9       30.11R
MONTICELLO *   MOSUNNY   54  45  71 VRB7      30.10F
OELWEIN *      SUNNY     54  46  76 NE6       30.12S
WATERLOO       SUNNY     54  44  69 E5        30.12S
$$

IAZ064-065-067-068-078-021600-
   EAST CENTRAL IOWA

CITY           SKY/WX    TMP DP  RH WIND       PRES   REMARKS
DAVENPORT      CLOUDY    51  45  79 NE10      30.10S
IOWA CITY      CLOUDY    51  45  79 NE6       30.12S
MT. PLEASANT * CLOUDY    52  50  93 N10       30.10R
MUSCATINE *    CLOUDY    50  46  87 N8        30.11R
QUAD CITIES    CLOUDY    52  45  77 N8        30.08F
$$

IAZ062-063-075>077-085>089-095>099-021600-
   SOUTHEAST IOWA

CITY           SKY/WX    TMP DP  RH WIND       PRES   REMARKS
BURLINGTON     CLOUDY    49  46  90 NE14      30.08R
FAIRFIELD *    CLOUDY    50  46  87 NE10      30.10S
FORT MADISON * CLOUDY    48  46  93 NE8       30.09R
KEOKUK *       CLOUDY    50  48  93 N7        30.07R
OSKALOOSA *      N/A     52  45  76 NE12      30.11S
OTTUMWA        MOSUNNY   52  46  80 N13       30.10F
WASHINGTON *   CLOUDY    50  50 100 N9        30.11F
$$

ABBREVIATIONS USED IN REMARKS
   TC - TEMPERATURES IN CELSIUS
  WCI - WIND CHILL INDEX
   HX - HEAT INDEX
  VSB - VISIBILITY
$$





USA.gov is the U.S. government's official web portal to all federal, state and local government web resources and services.